Погода в Шаиме

Погода в Шаиме : погода сейчас, прогноз погоды и архив. Всё, что Вы хотите узнать о погоде в Шаиме!

Хотите узнать прогноз погоды в Шаиме? Тогда Вам сюда: Погода в Шаиме

Поиск расширенной информации на нашем сайте:

Другие новости

Новости СМИ2

Главная страница сайта

Новости сайта

03.07.2017

Напоминаем, что на нашем специализированном сайте Метеоцентр.Азия вы можете получить высокодетализированные автоматические прогнозы погоды по пунктам России, СНГ и мира в авиационном формате (включающие направление и скорость ветра, видимость, явления погоды, количество и форму облачности, нижнюю и верхнюю границу облачности).


Погода в Шаиме - сегодня

Время (UTC), дата Ветер
(°,м/с) 
Видим.   Явления Облачность Т
(°С)
Тd
(°С)
f(%) Тe
(°С)
Pmin
(гПа)
dP
(гПа)
Po
(мм)
O2
(г/м3)
Тmin Tmax R s Состояние
почвы
03 17.09.17 220 (ЮЗ) 26000 м    10/0 верхняя 
[Ci sp]
+10.1 +6.4 78 +9  1004.9  -0.6  749  290  +8.7         
06 17.09.17 250 (З) 6{12}  27000 м    10/8 600 м верхняя 
[Sc|Ci fib]
+14.8 +6.6 58 +14  1004.1  -0.7  748  285           
15 17.09.17 240 (ЮЗ) 4{14}  24000 м  в посл. час ливневой дождь  10/8 600 м кучево-дожд., верхняя 
[Cb cap|Ci fib]
+10.9 +8.6 86 +10  1004.4  0.1  749  289    +15.3     
18 17.09.17 250 (З) 25000 м  {ливн. осадки}  10/8 600 м кучево-дожд., верхняя 
[Cb cap|Ci fib]
+10.3 +6.1 75 +10  1003.7  -0.6  748  289           
21 17.09.17 250 (З) 24000 м    10/10 600 м кучево-дожд. 
[Cb cap]
+9.6 +6.1 79 +9  1003.2  -0.6  748  290           
00 18.09.17 270 (З) 25000 м    10/8 600 м кучево-дожд., средняя, верхняя 
[Cb cap|Ac trans|Ci fib]
+8.8 +3.4 69 +8  1003.9  0.7  748  292           
03 18.09.17 280 (З) 25000 м    10/10 600 м кучево-дожд. 
[Cb cap]
+8.3 +3.1 70 +7  1005.1  1.2  749  292  +8.3         
06 18.09.17 280 (З) 26000 м    10/10 600 м кучево-дожд. 
[Cb cap]
+9.1 +3.8 69 +8  1006.8  1.2  750  292           
15 18.09.17 290 (З) 4{12}  27000 м    10/10 600 м кучево-дожд. 
[Cb cap]
+9 +8  1013.4  2.1  755  295    +10.6       
18 18.09.17 300 (СЗ) 26000 м    10/10 600 м кучево-дожд. 
[Cb cap]
+8.2 +4.7 79 +7  1015  1.5  756  295           
21 18.09.17 290 (З) 25000 м    10/10 600 м кучево-дожд. 
[Cb cap]
+7.6 +3.6 76 +7  1016  757  296           
00 19.09.17 290 (З) 26000 м    10/10 600 м кучево-дожд. 
[Cb cap]
+6.4 +2.5 76 +5  1017.4  1.4  758  298           
03 19.09.17 250 (З) 25000 м    9/9 600 м 
[Sc]
+4.6 +1.7 81 +5  1018.7  1.2  759  301  +4.5         
06 19.09.17 260 (З) 26000 м    10/0 средняя, верхняя 
[Ac trans|Ci fib]
+8.2 +2.1 65 +8  1019.1  0.5  759  297           
09 19.09.17 280 (З) 27000 м    10/3 1000 м средняя, верхняя 
[Cu hum|Ac trans|Ci fib]
+10.6 +1 51 +11  1018.8  -0.2  759  294           
12 19.09.17 тихо ()   28000 м    10/0 средняя, верхняя 
[Ac trans|Ci fib]
+10.2 +1.7 56 +10  1018.5  -0.2  759  295           
15 19.09.17 190 (Ю) 27000 м    10/6 1000 м средняя, верхняя 
[Sc|Ac trans|Ci fib]
+7.2 +3.6 78 +8  1018.3  -0.2  759  297    +11       
18 19.09.17 180 (Ю) 26000 м    10/10 600 м 
[Sc]
+6.1 +3.3 82 +7  1017.6  -0.7  758  298           
21 19.09.17 150 (ЮВ) 6000 м  слаб. ливневой дождь  10/10 600 м кучево-дожд. 
[Cb cap]
+5.8 +4.5 91 +7  1015.2  -2.4  757  298           
00 20.09.17 110 (В) 23000 м  в посл. час ливневой дождь  10/10 600 м кучево-дожд. 
[Cb cap]
+5.5 +4.6 94 +4  1012.5  -2.8  754  297           
03 20.09.17 100 (В) 6000 м  слаб. ливневой дождь  10/10 600 м кучево-дожд. 
[Cb cap]
+6 +5.1 94 +4  1010.7  -1.7  753  296  +5.4       
06 20.09.17 100 (В) 6000 м  слаб. ливневой дождь  10/10 300 м кучево-дожд. 
[Cb cap]
+6.8 +6 95 +7  1010.2  -0.5  753  295           
09 20.09.17 100 (В) 23000 м  в посл. час ливневой дождь  10/10 300 м кучево-дожд. 
[Cb cap]
+7.5 +6.6 94 +7  1010.9  0.8  753  294           
12 20.09.17 тихо ()   24000 м  {ливн. осадки}  10/10 300 м кучево-дожд. 
[Cb cap]
+7.7 +6.7 93 +8  1012.6  1.7  755  295           
15 20.09.17 060 (СВ) 6000 м  слаб. ливневой дождь  10/10 300 м кучево-дожд. 
[Cb cap]
+6.9 +6.1 95 +6  1013.9  1.3  756  296    +7.7     
Время (UTC), дата Ветер
(°,м/с) 
Видим.   Явления Облачность Т
(°С)
Тd
(°С)
f(%) Тe
(°С)
Pmin
(гПа)
dP
(гПа)
Po
(мм)
O2
(г/м3)
Тmin Tmax R s Состояние
почвы

Для получения пояснительной информации подведите курсор к названию столбца.

ПОГОДА в Шаиме - архив

Всё, что Вы хотите узнать о погоде в Шаиме - удобно и подробно!

Выберите нужную дату (начиная с 1 января 2015* года) и нажмите кнопку "Найти".
Будут отображены архивные сводки погоды по пункту Шаим, начиная с указанной даты.


Отображать данные в формате CSV (для использования в таблицах Excel)


Внимание! Наш архив погоды предназначен исключительно для личного некоммерческого использования в познавательных целях. Если Вам необходимы официальные справки о состоянии погоды (для производственных, юридических, коммерческих и т.п. целей), обращайтесь в органы Росгидромета.

*Примечание: данная дата относится к архиву по метеостанциям СССР (Россия, СНГ, Балтия).
Архив по метеостанциям Зарубежной Европы и Азии (кроме Китая) хранится 10 дней, по другим регионам земного шара (Китай, Африка, Америка, Австралия, Океания) - 1 день.

Шаим - район местоположения метеостанции


Название, широта, долгота, высота метеостанции:
Шаим 60.3°ш. 64.2°д. 53 м над ур. моря [Российская Федерация]

Дополнительная информация

В oтличие oт бoльшинства пoгoдных сайтoв мы публикуем пoдрoбную метеoинфoрмацию в детальнoм прoфессиoнальнoм фoрмате.

Характеристики температуры и влажнoсти вoздуха измеряются на высoте 2 м в тени вдали oт зданий и деревьев.
Скoрoсть ветра измеряется на высoте 10 м (на урoвне рoста челoвека скoрoсть ветра ниже в 1.5-2 раза). Если метеoстанция нахoдится в гoрoде или в лесу, тo скoрoсть ветра занижена на 2-4 м/с пo сравнению с oткрытым местoм. Скoрoсть ветра над акватoриями крупных рек и oзёр, а также на вершинах хoлмoв на 2-5 м/с выше, чем в oбычных услoвиях.
Атмoсфернoе давление в разных тoчках местнoсти мoжет значительнo oтличаться oт давления на метеoстанции, в зависимoсти oт услoвий рельефа (при пoдъёме на 10 м давление пoнижается примернo на 1 мм рт.ст.).